Terminal Aerodrome Forecast
Issued by NWS Charleston, WV

Current Version | Previous Version | Graphics & Text | Print | Product List | Glossary On
Versions: 1 2 3 4 5 6 7 8 9 10 11 12 13 14 15 16 17 18 19 20 21 22 23 24 25 26 27
000
FTUS41 KRLX 010907 AAA
TAFEKN
TAF AMD
KEKN 010907Z 0109/0206 28003KT P6SM BKN040 OVC060
     FM011000 27012G20KT P6SM BKN035
     FM011500 27011G18KT P6SM OVC015
     FM012200 27008G14KT P6SM OVC025
     FM020300 27008KT P6SM BKN020=

USA.gov is the U.S. government's official web portal to all federal, state and local government web resources and services.